Time,TemperatureF,DewpointF,PressureIn,WindDirection,WindDirectionDegrees,WindSpeedMPH,WindSpeedGustMPH,Humidity,HourlyPrecipIn,Conditions,Clouds,dailyrainin,SoftwareType,DateUTC
2013-02-20 00:00:00,23.5,20.8,30.15,South,180,2.2,2.2,89,0.00,,---,0.00,VWS V13.01,2013-02-20 08:00:00,
2013-02-20 00:05:00,23.2,20.4,30.15,South,180,0.0,2.2,89,0.00,,---,0.00,VWS V13.01,2013-02-20 08:05:00,
2013-02-20 00:10:00,23.2,20.4,30.15,South,180,0.0,0.0,89,0.00,,---,0.00,VWS V13.01,2013-02-20 08:10:00,
2013-02-20 00:15:00,23.2,20.4,30.15,South,180,0.0,0.0,89,0.00,,---,0.00,VWS V13.01,2013-02-20 08:15:00,
2013-02-20 00:20:00,22.6,20.1,30.15,South,180,0.0,0.0,90,0.00,,---,0.00,VWS V13.01,2013-02-20 08:20:00,
2013-02-20 00:25:00,22.5,20.0,30.15,South,180,0.0,0.0,90,0.00,,---,0.00,VWS V13.01,2013-02-20 08:25:00,
2013-02-20 00:29:00,22.3,19.8,30.15,South,180,0.0,0.0,90,0.00,,---,0.00,VWS V13.01,2013-02-20 08:29:00,
2013-02-20 00:34:00,22.3,19.8,30.15,South,180,0.0,0.0,90,0.00,,---,0.00,VWS V13.01,2013-02-20 08:34:00,
2013-02-20 00:39:00,22.5,20.2,30.15,South,180,0.0,0.0,91,0.00,,---,0.00,VWS V13.01,2013-02-20 08:39:00,
2013-02-20 00:44:00,22.1,19.9,30.15,South,180,0.0,0.0,91,0.00,,---,0.00,VWS V13.01,2013-02-20 08:44:00,
2013-02-20 00:49:00,22.1,19.9,30.15,South,180,0.0,0.0,91,0.00,,---,0.00,VWS V13.01,2013-02-20 08:49:00,
2013-02-20 00:54:00,21.6,19.3,30.15,South,180,0.0,0.0,91,0.00,,---,0.00,VWS V13.01,2013-02-20 08:54:00,
2013-02-20 00:59:00,21.2,19.0,30.15,South,180,0.0,0.0,91,0.00,,---,0.00,VWS V13.01,2013-02-20 08:59:00,
2013-02-20 01:04:00,20.7,18.5,30.15,South,180,0.0,0.0,91,0.00,,---,0.00,VWS V13.01,2013-02-20 09:04:00,
2013-02-20 01:09:00,20.3,18.1,30.15,South,180,0.0,0.0,91,0.00,,---,0.00,VWS V13.01,2013-02-20 09:09:00,
2013-02-20 01:14:00,19.9,17.7,30.15,South,180,0.0,0.0,91,0.00,,---,0.00,VWS V13.01,2013-02-20 09:14:00,
2013-02-20 01:19:00,19.8,17.6,30.18,South,180,0.0,0.0,91,0.00,,---,0.00,VWS V13.01,2013-02-20 09:19:00,
2013-02-20 01:24:00,19.2,17.3,30.18,South,180,0.0,0.0,92,0.00,,---,0.00,VWS V13.01,2013-02-20 09:24:00,
2013-02-20 01:29:00,19.2,17.3,30.18,South,180,0.0,0.0,92,0.00,,---,0.00,VWS V13.01,2013-02-20 09:29:00,
2013-02-20 01:34:00,19.0,17.1,30.18,South,180,0.0,0.0,92,0.00,,---,0.00,VWS V13.01,2013-02-20 09:34:00,
2013-02-20 01:39:00,19.2,17.5,30.18,South,180,0.0,0.0,93,0.00,,---,0.00,VWS V13.01,2013-02-20 09:39:00,
2013-02-20 01:44:00,18.7,17.0,30.18,South,180,0.0,0.0,93,0.00,,---,0.00,VWS V13.01,2013-02-20 09:44:00,
2013-02-20 01:49:00,18.5,16.8,30.18,South,180,0.0,0.0,93,0.00,,---,0.00,VWS V13.01,2013-02-20 09:49:00,
2013-02-20 01:54:00,19.0,17.6,30.18,South,180,0.0,0.0,94,0.00,,---,0.00,VWS V13.01,2013-02-20 09:54:00,
2013-02-20 01:59:00,19.2,18.0,30.18,South,180,0.0,0.0,95,0.00,,---,0.00,VWS V13.01,2013-02-20 09:59:00,
2013-02-20 02:04:00,19.6,18.4,30.18,South,180,0.0,0.0,95,0.00,,---,0.00,VWS V13.01,2013-02-20 10:04:00,
2013-02-20 02:09:00,19.6,18.4,30.18,South,180,0.0,0.0,95,0.00,,---,0.00,VWS V13.01,2013-02-20 10:09:00,
2013-02-20 02:14:00,19.8,18.6,30.18,South,180,0.0,0.0,95,0.00,,---,0.00,VWS V13.01,2013-02-20 10:14:00,
2013-02-20 02:19:00,20.1,18.9,30.18,South,180,0.0,0.0,95,0.00,,---,0.00,VWS V13.01,2013-02-20 10:19:00,
2013-02-20 02:24:00,20.8,19.9,30.18,South,180,0.0,0.0,96,0.00,,---,0.00,VWS V13.01,2013-02-20 10:24:00,
2013-02-20 02:29:00,21.0,20.1,30.18,South,180,0.0,0.0,96,0.00,,---,0.00,VWS V13.01,2013-02-20 10:29:00,
2013-02-20 02:34:00,21.2,20.2,30.18,South,180,0.0,0.0,96,0.00,,---,0.00,VWS V13.01,2013-02-20 10:34:00,
2013-02-20 02:39:00,21.4,20.4,30.18,South,180,0.0,0.0,96,0.00,,---,0.00,VWS V13.01,2013-02-20 10:39:00,
2013-02-20 02:44:00,21.4,20.4,30.18,South,180,0.0,0.0,96,0.00,,---,0.00,VWS V13.01,2013-02-20 10:44:00,
2013-02-20 02:49:00,22.8,22.1,30.18,South,180,0.0,0.0,97,0.00,,---,0.00,VWS V13.01,2013-02-20 10:49:00,
2013-02-20 02:54:00,22.8,22.1,30.18,South,180,0.0,0.0,97,0.00,,---,0.00,VWS V13.01,2013-02-20 10:54:00,
2013-02-20 02:59:00,23.2,22.5,30.18,South,180,0.0,0.0,97,0.00,,---,0.00,VWS V13.01,2013-02-20 10:59:00,
2013-02-20 03:04:00,23.7,23.0,30.18,South,180,0.0,0.0,97,0.00,,---,0.00,VWS V13.01,2013-02-20 11:04:00,
2013-02-20 03:09:00,23.9,23.2,30.18,South,180,0.0,0.0,97,0.00,,---,0.00,VWS V13.01,2013-02-20 11:09:00,
2013-02-20 03:14:00,24.1,23.4,30.18,South,180,0.0,0.0,97,0.00,,---,0.00,VWS V13.01,2013-02-20 11:14:00,
2013-02-20 03:19:00,23.9,23.2,30.18,South,180,0.0,0.0,97,0.00,,---,0.00,VWS V13.01,2013-02-20 11:19:00,
2013-02-20 03:24:00,23.9,22.9,30.18,South,180,0.0,0.0,96,0.00,,---,0.00,VWS V13.01,2013-02-20 11:24:00,
2013-02-20 03:29:00,23.7,22.8,30.18,South,180,0.0,0.0,96,0.00,,---,0.00,VWS V13.01,2013-02-20 11:29:00,
2013-02-20 03:34:00,23.7,22.8,30.18,South,180,0.0,0.0,96,0.00,,---,0.00,VWS V13.01,2013-02-20 11:34:00,
2013-02-20 03:39:00,23.4,22.1,30.18,South,180,0.0,0.0,95,0.00,,---,0.00,VWS V13.01,2013-02-20 11:39:00,
2013-02-20 03:44:00,22.8,21.6,30.18,South,180,0.0,0.0,95,0.00,,---,0.00,VWS V13.01,2013-02-20 11:44:00,
2013-02-20 03:49:00,22.6,21.4,30.18,South,180,0.0,0.0,95,0.00,,---,0.00,VWS V13.01,2013-02-20 11:49:00,
2013-02-20 03:54:00,22.5,21.2,30.18,South,180,0.0,0.0,95,0.00,,---,0.00,VWS V13.01,2013-02-20 11:54:00,
2013-02-20 03:59:00,22.8,21.9,30.18,South,180,0.0,0.0,96,0.00,,---,0.00,VWS V13.01,2013-02-20 11:59:00,
2013-02-20 04:04:00,22.3,21.3,30.18,South,180,0.0,0.0,96,0.00,,---,0.00,VWS V13.01,2013-02-20 12:04:00,
2013-02-20 04:09:00,21.7,20.5,30.18,South,180,0.0,0.0,95,0.00,,---,0.00,VWS V13.01,2013-02-20 12:09:00,
2013-02-20 04:14:00,21.2,20.0,30.18,South,180,0.0,0.0,95,0.00,,---,0.00,VWS V13.01,2013-02-20 12:14:00,
2013-02-20 04:19:00,21.2,20.0,30.18,South,180,0.0,0.0,95,0.00,,---,0.00,VWS V13.01,2013-02-20 12:19:00,
2013-02-20 04:24:00,21.6,20.4,30.18,South,180,0.0,0.0,95,0.00,,---,0.00,VWS V13.01,2013-02-20 12:24:00,
2013-02-20 04:29:00,21.9,21.0,30.18,South,180,0.0,0.0,96,0.00,,---,0.00,VWS V13.01,2013-02-20 12:29:00,
2013-02-20 04:34:00,22.1,21.4,30.18,South,180,0.0,0.0,97,0.00,,---,0.00,VWS V13.01,2013-02-20 12:34:00,
2013-02-20 04:39:00,22.6,21.9,30.18,South,180,0.0,0.0,97,0.00,,---,0.00,VWS V13.01,2013-02-20 12:39:00,
2013-02-20 04:44:00,22.8,22.3,30.18,South,180,0.0,0.0,98,0.00,,---,0.00,VWS V13.01,2013-02-20 12:44:00,
2013-02-20 04:49:00,23.5,23.1,30.18,South,180,0.0,0.0,98,0.00,,---,0.00,VWS V13.01,2013-02-20 12:49:00,
2013-02-20 04:54:00,23.7,23.2,30.21,South,180,0.0,0.0,98,0.00,,---,0.00,VWS V13.01,2013-02-20 12:54:00,
2013-02-20 04:59:00,24.3,23.8,30.21,South,180,0.0,0.0,98,0.00,,---,0.00,VWS V13.01,2013-02-20 12:59:00,
2013-02-20 05:04:00,24.4,23.7,30.21,South,180,0.0,0.0,97,0.00,,---,0.00,VWS V13.01,2013-02-20 13:04:00,
2013-02-20 05:09:00,25.0,24.2,30.21,South,180,0.0,0.0,97,0.00,,---,0.00,VWS V13.01,2013-02-20 13:09:00,
2013-02-20 05:14:00,25.0,24.0,30.21,South,180,0.0,0.0,96,0.00,,---,0.00,VWS V13.01,2013-02-20 13:14:00,
2013-02-20 05:19:00,25.0,23.8,30.21,South,180,0.0,0.0,95,0.00,,---,0.00,VWS V13.01,2013-02-20 13:19:00,
2013-02-20 05:24:00,25.3,24.1,30.21,South,180,0.0,0.0,95,0.00,,---,0.00,VWS V13.01,2013-02-20 13:24:00,
2013-02-20 05:29:00,25.5,23.8,30.21,South,180,0.0,0.0,93,0.00,,---,0.00,VWS V13.01,2013-02-20 13:29:00,
2013-02-20 05:34:00,25.3,23.4,30.21,South,180,0.0,0.0,92,0.00,,---,0.00,VWS V13.01,2013-02-20 13:34:00,
2013-02-20 05:39:00,24.8,22.5,30.21,South,180,0.0,0.0,91,0.00,,---,0.00,VWS V13.01,2013-02-20 13:39:00,
2013-02-20 05:44:00,24.4,22.2,30.21,South,180,0.0,0.0,91,0.00,,---,0.00,VWS V13.01,2013-02-20 13:44:00,
2013-02-20 05:49:00,24.4,22.2,30.21,South,180,0.0,0.0,91,0.00,,---,0.00,VWS V13.01,2013-02-20 13:49:00,
2013-02-20 05:54:00,24.3,22.0,30.21,South,180,0.0,0.0,91,0.00,,---,0.00,VWS V13.01,2013-02-20 13:54:00,
2013-02-20 05:59:00,23.9,21.7,30.21,South,180,0.0,0.0,91,0.00,,---,0.00,VWS V13.01,2013-02-20 13:59:00,
2013-02-20 06:04:00,23.7,21.5,30.21,South,180,0.0,0.0,91,0.00,,---,0.00,VWS V13.01,2013-02-20 14:04:00,
2013-02-20 06:09:00,23.7,21.5,30.21,South,180,0.0,0.0,91,0.00,,---,0.00,VWS V13.01,2013-02-20 14:09:00,
2013-02-20 06:14:00,23.2,20.7,30.21,South,180,0.0,0.0,90,0.00,,---,0.00,VWS V13.01,2013-02-20 14:14:00,
2013-02-20 06:19:00,23.2,20.7,30.21,South,180,0.0,0.0,90,0.00,,---,0.00,VWS V13.01,2013-02-20 14:19:00,
2013-02-20 06:24:00,21.7,19.3,30.21,South,180,0.0,0.0,90,0.00,,---,0.00,VWS V13.01,2013-02-20 14:24:00,
2013-02-20 06:29:00,21.4,18.9,30.21,South,180,0.0,0.0,90,0.00,,---,0.00,VWS V13.01,2013-02-20 14:29:00,
2013-02-20 06:34:00,21.4,19.2,30.21,South,180,0.0,0.0,91,0.00,,---,0.00,VWS V13.01,2013-02-20 14:34:00,
2013-02-20 06:39:00,21.6,19.3,30.21,South,180,0.0,0.0,91,0.00,,---,0.00,VWS V13.01,2013-02-20 14:39:00,
2013-02-20 06:44:00,22.1,20.1,30.21,South,180,0.0,0.0,92,0.00,,---,0.00,VWS V13.01,2013-02-20 14:44:00,
2013-02-20 06:49:00,22.8,21.1,30.21,South,180,2.7,3.1,93,0.00,,---,0.00,VWS V13.01,2013-02-20 14:49:00,
2013-02-20 06:54:00,23.4,21.4,30.21,South,180,0.0,0.0,92,0.00,,---,0.00,VWS V13.01,2013-02-20 14:54:00,
2013-02-20 06:59:00,23.4,21.1,30.21,South,180,0.0,0.0,91,0.00,,---,0.00,VWS V13.01,2013-02-20 14:59:00,
2013-02-20 07:04:00,23.4,21.1,30.21,South,180,0.0,0.0,91,0.00,,---,0.00,VWS V13.01,2013-02-20 15:04:00,
2013-02-20 07:09:00,23.4,20.6,30.21,South,180,0.0,0.0,89,0.00,,---,0.00,VWS V13.01,2013-02-20 15:09:00,
2013-02-20 07:14:00,23.4,20.3,30.21,South,180,0.0,0.0,88,0.00,,---,0.00,VWS V13.01,2013-02-20 15:14:00,
2013-02-20 07:19:00,23.4,20.3,30.21,South,180,0.0,0.0,88,0.00,,---,0.00,VWS V13.01,2013-02-20 15:19:00,
2013-02-20 07:24:00,23.5,20.2,30.24,South,180,0.0,0.0,87,0.00,,---,0.00,VWS V13.01,2013-02-20 15:24:00,
2013-02-20 07:29:00,23.5,20.0,30.24,South,180,0.0,0.0,86,0.00,,---,0.00,VWS V13.01,2013-02-20 15:29:00,
2013-02-20 07:34:00,23.4,19.5,30.24,South,180,0.0,0.0,85,0.00,,---,0.00,VWS V13.01,2013-02-20 15:34:00,
2013-02-20 07:39:00,23.2,19.4,30.21,South,180,2.2,2.7,85,0.00,,---,0.00,VWS V13.01,2013-02-20 15:39:00,
2013-02-20 07:44:00,23.0,18.9,30.21,South,180,0.0,0.0,84,0.00,,---,0.00,VWS V13.01,2013-02-20 15:44:00,
2013-02-20 07:49:00,23.0,18.9,30.21,South,180,0.0,0.0,84,0.00,,---,0.00,VWS V13.01,2013-02-20 15:49:00,
2013-02-20 07:54:00,22.8,18.7,30.21,South,180,0.0,0.0,84,0.00,,---,0.00,VWS V13.01,2013-02-20 15:54:00,
2013-02-20 07:59:00,22.8,18.7,30.21,South,180,0.0,0.0,84,0.00,,---,0.00,VWS V13.01,2013-02-20 15:59:00,
2013-02-20 08:04:00,23.0,18.9,30.21,South,180,0.0,2.7,84,0.00,,---,0.00,VWS V13.01,2013-02-20 16:04:00,
2013-02-20 08:09:00,23.7,19.3,30.21,South,180,0.0,0.0,83,0.00,,---,0.00,VWS V13.01,2013-02-20 16:09:00,
2013-02-20 08:14:00,24.6,20.2,30.21,South,180,0.0,0.0,83,0.00,,---,0.00,VWS V13.01,2013-02-20 16:14:00,
2013-02-20 08:19:00,25.3,20.3,30.21,South,180,0.0,0.0,81,0.00,,---,0.00,VWS V13.01,2013-02-20 16:19:00,
2013-02-20 08:24:00,26.6,21.0,30.21,South,180,0.0,0.0,79,0.00,,---,0.00,VWS V13.01,2013-02-20 16:24:00,
2013-02-20 08:29:00,27.9,21.6,30.21,South,180,3.1,3.1,77,0.00,,---,0.00,VWS V13.01,2013-02-20 16:29:00,
2013-02-20 08:34:00,29.3,20.4,30.21,SW,225,3.1,3.1,69,0.00,,---,0.00,VWS V13.01,2013-02-20 16:34:00,
2013-02-20 08:39:00,30.2,19.9,30.21,SW,225,0.0,0.0,65,0.00,,---,0.00,VWS V13.01,2013-02-20 16:39:00,
2013-02-20 08:44:00,31.1,19.6,30.21,SW,225,0.0,0.0,62,0.00,,---,0.00,VWS V13.01,2013-02-20 16:44:00,
2013-02-20 08:49:00,32.2,19.5,30.21,SW,225,0.0,0.0,59,0.00,,---,0.00,VWS V13.01,2013-02-20 16:49:00,
2013-02-20 08:54:00,32.9,19.4,30.21,SW,225,0.0,2.2,57,0.00,,---,0.00,VWS V13.01,2013-02-20 16:54:00,
2013-02-20 08:59:00,33.6,19.6,30.21,SW,225,2.7,2.7,56,0.00,,---,0.00,VWS V13.01,2013-02-20 16:59:00,
2013-02-20 09:04:00,33.4,18.6,30.21,SW,225,2.2,2.2,54,0.00,,---,0.00,VWS V13.01,2013-02-20 17:04:00,
2013-02-20 09:09:00,34.2,19.3,30.21,SW,225,2.7,2.7,54,0.00,,---,0.00,VWS V13.01,2013-02-20 17:09:00,
2013-02-20 09:14:00,34.2,18.8,30.21,SW,225,0.0,2.2,53,0.00,,---,0.00,VWS V13.01,2013-02-20 17:14:00,
2013-02-20 09:19:00,34.5,18.7,30.21,SW,225,3.6,3.6,52,0.00,,---,0.00,VWS V13.01,2013-02-20 17:19:00,
2013-02-20 09:24:00,35.8,19.4,30.21,SW,225,0.0,0.0,51,0.00,,---,0.00,VWS V13.01,2013-02-20 17:24:00,
2013-02-20 09:29:00,36.0,19.6,30.21,SW,225,3.1,3.1,51,0.00,,---,0.00,VWS V13.01,2013-02-20 17:29:00,
2013-02-20 09:34:00,36.9,20.0,30.21,SW,225,2.2,3.1,50,0.00,,---,0.00,VWS V13.01,2013-02-20 17:34:00,
2013-02-20 09:39:00,37.9,20.5,30.21,SW,225,3.1,3.1,49,0.00,,---,0.00,VWS V13.01,2013-02-20 17:39:00,
2013-02-20 09:44:00,37.9,19.5,30.21,West,270,3.6,5.8,47,0.00,,---,0.00,VWS V13.01,2013-02-20 17:44:00,
2013-02-20 09:49:00,37.9,19.0,30.21,NW,315,3.1,3.1,46,0.00,,---,0.00,VWS V13.01,2013-02-20 17:49:00,
2013-02-20 09:54:00,37.9,19.0,30.21,NW,315,4.0,5.4,46,0.00,,---,0.00,VWS V13.01,2013-02-20 17:54:00,
2013-02-20 09:59:00,37.8,18.3,30.21,NW,315,3.6,3.6,45,0.00,,---,0.00,VWS V13.01,2013-02-20 17:59:00,
2013-02-20 10:04:00,37.6,17.7,30.21,WSW,248,4.0,4.0,44,0.00,,---,0.00,VWS V13.01,2013-02-20 18:04:00,
2013-02-20 10:09:00,37.2,17.9,30.21,West,270,2.2,2.2,45,0.00,,---,0.00,VWS V13.01,2013-02-20 18:09:00,
2013-02-20 10:14:00,36.9,17.0,30.21,SW,225,0.0,0.0,44,0.00,,---,0.00,VWS V13.01,2013-02-20 18:14:00,
2013-02-20 10:19:00,37.6,17.7,30.21,SW,225,3.1,3.1,44,0.00,,---,0.00,VWS V13.01,2013-02-20 18:19:00,
2013-02-20 10:24:00,37.0,17.2,30.21,North,0,4.0,4.0,44,0.00,,---,0.00,VWS V13.01,2013-02-20 18:24:00,
2013-02-20 10:29:00,37.0,17.2,30.21,North,0,2.7,2.7,44,0.00,,---,0.00,VWS V13.01,2013-02-20 18:29:00,
2013-02-20 10:34:00,37.2,17.3,30.21,NW,315,3.6,3.6,44,0.00,,---,0.00,VWS V13.01,2013-02-20 18:34:00,
2013-02-20 10:39:00,37.0,17.2,30.21,North,0,0.0,0.0,44,0.00,,---,0.00,VWS V13.01,2013-02-20 18:39:00,
2013-02-20 10:44:00,38.1,17.6,30.21,WSW,248,2.7,3.1,43,0.00,,---,0.00,VWS V13.01,2013-02-20 18:44:00,
2013-02-20 10:49:00,38.1,17.6,30.21,North,0,5.4,5.4,43,0.00,,---,0.00,VWS V13.01,2013-02-20 18:49:00,
2013-02-20 10:54:00,38.1,17.6,30.21,North,0,2.7,4.0,43,0.00,,---,0.00,VWS V13.01,2013-02-20 18:54:00,
2013-02-20 10:59:00,38.7,18.1,30.21,North,0,7.6,7.6,43,0.00,,---,0.00,VWS V13.01,2013-02-20 18:59:00,
2013-02-20 11:04:00,38.8,18.3,30.21,WNW,292,2.7,4.0,43,0.00,,---,0.00,VWS V13.01,2013-02-20 19:04:00,
2013-02-20 11:09:00,39.4,18.2,30.21,WNW,292,4.0,4.0,42,0.00,,---,0.00,VWS V13.01,2013-02-20 19:09:00,
2013-02-20 11:14:00,39.4,17.7,30.21,North,0,3.1,3.6,41,0.00,,---,0.00,VWS V13.01,2013-02-20 19:14:00,
2013-02-20 11:19:00,39.4,17.7,30.21,NNE,22,3.1,3.1,41,0.00,,---,0.00,VWS V13.01,2013-02-20 19:19:00,
2013-02-20 11:24:00,39.9,18.1,30.21,NE,45,4.0,4.5,41,0.00,,---,0.00,VWS V13.01,2013-02-20 19:24:00,
2013-02-20 11:29:00,40.5,18.6,30.21,NE,45,4.9,4.9,41,0.00,,---,0.00,VWS V13.01,2013-02-20 19:29:00,
2013-02-20 11:34:00,40.5,18.6,30.21,North,0,3.6,4.0,41,0.00,,---,0.00,VWS V13.01,2013-02-20 19:34:00,
2013-02-20 11:39:00,39.9,18.1,30.21,NNW,338,0.0,2.2,41,0.00,,---,0.00,VWS V13.01,2013-02-20 19:39:00,
2013-02-20 11:44:00,40.3,18.5,30.21,North,0,3.1,3.1,41,0.00,,---,0.00,VWS V13.01,2013-02-20 19:44:00,
2013-02-20 11:49:00,39.7,18.0,30.21,North,0,2.7,2.7,41,0.00,,---,0.00,VWS V13.01,2013-02-20 19:49:00,
2013-02-20 11:54:00,39.7,18.0,30.18,North,0,0.0,0.0,41,0.00,,---,0.00,VWS V13.01,2013-02-20 19:54:00,
2013-02-20 11:59:00,41.0,18.5,30.18,SW,225,3.1,3.1,40,0.00,,---,0.00,VWS V13.01,2013-02-20 19:59:00,
2013-02-20 12:04:00,41.4,18.9,30.18,NW,315,0.0,2.2,40,0.00,,---,0.00,VWS V13.01,2013-02-20 20:04:00,
2013-02-20 12:09:00,42.3,19.7,30.18,NW,315,0.0,0.0,40,0.00,,---,0.00,VWS V13.01,2013-02-20 20:09:00,
2013-02-20 12:14:00,43.5,20.2,30.18,NW,315,0.0,0.0,39,0.00,,---,0.00,VWS V13.01,2013-02-20 20:14:00,
2013-02-20 12:19:00,44.1,20.7,30.18,NE,45,3.1,3.1,39,0.00,,---,0.00,VWS V13.01,2013-02-20 20:19:00,
2013-02-20 12:24:00,44.4,21.0,30.18,NE,45,3.1,4.0,39,0.00,,---,0.00,VWS V13.01,2013-02-20 20:24:00,
2013-02-20 12:29:00,44.6,20.6,30.18,NE,45,2.7,2.7,38,0.00,,---,0.00,VWS V13.01,2013-02-20 20:29:00,
2013-02-20 12:34:00,43.7,19.8,30.18,South,180,3.6,3.6,38,0.00,,---,0.00,VWS V13.01,2013-02-20 20:34:00,
2013-02-20 12:39:00,44.2,20.3,30.18,West,270,2.7,3.6,38,0.00,,---,0.00,VWS V13.01,2013-02-20 20:39:00,
2013-02-20 12:44:00,43.0,19.1,30.18,NW,315,4.5,4.5,38,0.00,,---,0.00,VWS V13.01,2013-02-20 20:44:00,
2013-02-20 12:49:00,43.0,19.1,30.18,NW,315,3.6,3.6,38,0.00,,---,0.00,VWS V13.01,2013-02-20 20:49:00,
2013-02-20 12:54:00,43.5,19.6,30.18,NW,315,0.0,0.0,38,0.00,,---,0.00,VWS V13.01,2013-02-20 20:54:00,
2013-02-20 12:59:00,44.8,20.7,30.18,NW,315,2.7,5.4,38,0.00,,---,0.00,VWS V13.01,2013-02-20 20:59:00,
2013-02-20 13:04:00,45.1,20.4,30.18,NW,315,0.0,0.0,37,0.00,,---,0.00,VWS V13.01,2013-02-20 21:04:00,
2013-02-20 13:09:00,44.1,20.1,30.18,NE,45,5.4,5.4,38,0.00,,---,0.00,VWS V13.01,2013-02-20 21:09:00,
2013-02-20 13:14:00,43.3,19.5,30.18,NE,45,6.3,6.3,38,0.00,,---,0.00,VWS V13.01,2013-02-20 21:14:00,
2013-02-20 13:19:00,42.6,18.8,30.18,NNE,22,4.9,4.9,38,0.00,,---,0.00,VWS V13.01,2013-02-20 21:19:00,
2013-02-20 13:24:00,42.6,18.8,30.18,North,0,4.9,4.9,38,0.00,,---,0.00,VWS V13.01,2013-02-20 21:24:00,
2013-02-20 13:29:00,42.6,18.8,30.18,NE,45,5.8,5.8,38,0.00,,---,0.00,VWS V13.01,2013-02-20 21:29:00,
2013-02-20 13:34:00,41.7,18.6,30.18,NNE,22,4.9,5.8,39,0.00,,---,0.00,VWS V13.01,2013-02-20 21:34:00,
2013-02-20 13:39:00,42.4,19.2,30.18,West,270,3.6,5.4,39,0.00,,---,0.00,VWS V13.01,2013-02-20 21:39:00,
2013-02-20 13:44:00,42.6,19.4,30.18,NNE,22,8.7,8.7,39,0.00,,---,0.00,VWS V13.01,2013-02-20 21:44:00,
2013-02-20 13:49:00,42.3,19.1,30.18,NNE,22,6.3,6.3,39,0.00,,---,0.00,VWS V13.01,2013-02-20 21:49:00,
2013-02-20 13:54:00,43.0,19.1,30.18,West,270,3.6,3.6,38,0.00,,---,0.00,VWS V13.01,2013-02-20 21:54:00,
2013-02-20 13:59:00,42.4,18.6,30.18,NW,315,4.0,4.0,38,0.00,,---,0.00,VWS V13.01,2013-02-20 21:59:00,
2013-02-20 14:04:00,42.4,18.6,30.18,NW,315,4.9,4.9,38,0.00,,---,0.00,VWS V13.01,2013-02-20 22:04:00,
2013-02-20 14:09:00,42.1,18.3,30.18,NNE,22,6.3,6.3,38,0.00,,---,0.00,VWS V13.01,2013-02-20 22:09:00,
2013-02-20 14:14:00,41.9,18.2,30.18,ENE,68,7.6,7.6,38,0.00,,---,0.00,VWS V13.01,2013-02-20 22:14:00,
2013-02-20 14:19:00,41.9,18.2,30.18,NNE,22,4.9,4.9,38,0.00,,---,0.00,VWS V13.01,2013-02-20 22:19:00,
2013-02-20 14:24:00,41.9,18.2,30.15,North,0,6.7,6.7,38,0.00,,---,0.00,VWS V13.01,2013-02-20 22:24:00,
2013-02-20 14:29:00,42.1,18.9,30.15,NE,45,5.8,5.8,39,0.00,,---,0.00,VWS V13.01,2013-02-20 22:29:00,
2013-02-20 14:34:00,41.9,18.8,30.15,NE,45,5.8,5.8,39,0.00,,---,0.00,VWS V13.01,2013-02-20 22:34:00,
2013-02-20 14:39:00,42.4,19.2,30.15,NE,45,6.3,8.1,39,0.00,,---,0.00,VWS V13.01,2013-02-20 22:39:00,
2013-02-20 14:44:00,43.0,19.7,30.15,NE,45,10.1,10.1,39,0.00,,---,0.00,VWS V13.01,2013-02-20 22:44:00,
2013-02-20 14:49:00,42.3,19.1,30.15,North,0,9.2,9.2,39,0.00,,---,0.00,VWS V13.01,2013-02-20 22:49:00,
2013-02-20 14:54:00,42.4,19.2,30.15,NE,45,8.3,10.5,39,0.00,,---,0.00,VWS V13.01,2013-02-20 22:54:00,
2013-02-20 14:59:00,41.9,18.8,30.15,North,0,7.6,8.7,39,0.00,,---,0.00,VWS V13.01,2013-02-20 22:59:00,
2013-02-20 15:04:00,41.2,18.1,30.15,NE,45,7.6,11.0,39,0.00,,---,0.00,VWS V13.01,2013-02-20 23:04:00,
2013-02-20 15:09:00,40.8,17.8,30.15,NNE,22,5.8,8.7,39,0.00,,---,0.00,VWS V13.01,2013-02-20 23:09:00,
2013-02-20 15:14:00,40.5,17.5,30.15,NE,45,10.1,10.1,39,0.00,,---,0.00,VWS V13.01,2013-02-20 23:14:00,
2013-02-20 15:19:00,40.5,17.5,30.15,North,0,4.9,8.1,39,0.00,,---,0.00,VWS V13.01,2013-02-20 23:19:00,
2013-02-20 15:23:00,40.5,18.1,30.15,North,0,4.0,9.6,40,0.00,,---,0.00,VWS V13.01,2013-02-20 23:23:00,
2013-02-20 15:28:00,40.3,17.9,30.15,NE,45,8.7,8.7,40,0.00,,---,0.00,VWS V13.01,2013-02-20 23:28:00,
2013-02-20 15:33:00,40.1,17.7,30.15,North,0,5.8,8.1,40,0.00,,---,0.00,VWS V13.01,2013-02-20 23:33:00,
2013-02-20 15:38:00,39.9,17.6,30.15,NE,45,7.6,7.6,40,0.00,,---,0.00,VWS V13.01,2013-02-20 23:38:00,
2013-02-20 15:43:00,39.9,17.6,30.15,North,0,12.3,12.3,40,0.00,,---,0.00,VWS V13.01,2013-02-20 23:43:00,
2013-02-20 15:49:00,39.4,16.5,30.15,NE,45,8.1,10.1,39,0.00,,---,0.00,VWS V13.01,2013-02-20 23:49:00,
2013-02-20 15:54:00,39.4,16.5,30.15,NE,45,5.4,6.3,39,0.00,,---,0.00,VWS V13.01,2013-02-20 23:54:00,
2013-02-20 15:59:00,39.2,16.3,30.15,NW,315,9.6,9.6,39,0.00,,---,0.00,VWS V13.01,2013-02-20 23:59:00,
2013-02-20 16:04:00,38.8,16.6,30.15,NE,45,4.9,4.9,40,0.00,,---,0.00,VWS V13.01,2013-02-21 00:04:00,
2013-02-20 16:09:00,38.7,16.4,30.18,NNE,22,5.4,8.1,40,0.00,,---,0.00,VWS V13.01,2013-02-21 00:09:00,
2013-02-20 16:14:00,38.5,16.3,30.18,NNW,338,5.8,11.0,40,0.00,,---,0.00,VWS V13.01,2013-02-21 00:14:00,
2013-02-20 16:18:00,38.3,16.1,30.18,NNE,22,3.6,4.9,40,0.00,,---,0.00,VWS V13.01,2013-02-21 00:18:00,
2013-02-20 16:24:00,38.1,15.9,30.18,NW,315,4.0,6.3,40,0.00,,---,0.00,VWS V13.01,2013-02-21 00:24:00,
2013-02-20 16:28:00,37.8,16.2,30.18,NNE,22,4.9,8.3,41,0.00,,---,0.00,VWS V13.01,2013-02-21 00:28:00,
2013-02-20 16:33:00,37.6,16.0,30.18,NE,45,4.9,5.4,41,0.00,,---,0.00,VWS V13.01,2013-02-21 00:33:00,
2013-02-20 16:38:00,37.6,16.0,30.18,North,0,5.8,5.8,41,0.00,,---,0.00,VWS V13.01,2013-02-21 00:38:00,
2013-02-20 16:43:00,37.4,16.4,30.18,North,0,4.0,4.0,42,0.00,,---,0.00,VWS V13.01,2013-02-21 00:43:00,
2013-02-20 16:48:00,37.0,16.1,30.18,North,0,2.7,5.4,42,0.00,,---,0.00,VWS V13.01,2013-02-21 00:48:00,
2013-02-20 16:53:00,37.0,16.1,30.18,NNE,22,4.0,4.0,42,0.00,,---,0.00,VWS V13.01,2013-02-21 00:53:00,
2013-02-20 16:58:00,37.0,16.6,30.18,North,0,3.1,4.0,43,0.00,,---,0.00,VWS V13.01,2013-02-21 00:58:00,
2013-02-20 17:03:00,36.9,16.5,30.18,North,0,3.1,3.6,43,0.00,,---,0.00,VWS V13.01,2013-02-21 01:03:00,
2013-02-20 17:08:00,36.7,16.3,30.18,NW,315,4.9,4.9,43,0.00,,---,0.00,VWS V13.01,2013-02-21 01:08:00,
2013-02-20 17:13:00,36.5,16.1,30.18,North,0,2.2,2.7,43,0.00,,---,0.00,VWS V13.01,2013-02-21 01:13:00,
2013-02-20 17:18:00,36.3,16.5,30.18,North,0,2.7,2.7,44,0.00,,---,0.00,VWS V13.01,2013-02-21 01:18:00,
2013-02-20 17:23:00,36.1,16.4,30.18,North,0,0.0,0.0,44,0.00,,---,0.00,VWS V13.01,2013-02-21 01:23:00,
2013-02-20 17:28:00,36.0,16.2,30.18,North,0,2.7,3.6,44,0.00,,---,0.00,VWS V13.01,2013-02-21 01:28:00,
2013-02-20 17:33:00,35.8,16.0,30.18,NNE,22,0.0,2.7,44,0.00,,---,0.00,VWS V13.01,2013-02-21 01:33:00,
2013-02-20 17:38:00,35.8,16.5,30.18,NNE,22,0.0,0.0,45,0.00,,---,0.00,VWS V13.01,2013-02-21 01:38:00,
2013-02-20 17:43:00,35.6,16.4,30.18,NNE,22,0.0,0.0,45,0.00,,---,0.00,VWS V13.01,2013-02-21 01:43:00,
2013-02-20 17:48:00,35.4,16.7,30.18,NNE,22,0.0,0.0,46,0.00,,---,0.00,VWS V13.01,2013-02-21 01:48:00,
2013-02-20 17:53:00,35.2,17.0,30.18,NNE,22,0.0,0.0,47,0.00,,---,0.00,VWS V13.01,2013-02-21 01:53:00,
2013-02-20 17:58:00,35.1,16.9,30.18,NNE,22,2.7,2.7,47,0.00,,---,0.00,VWS V13.01,2013-02-21 01:58:00,
2013-02-20 18:03:00,35.2,17.0,30.18,NE,45,3.6,4.0,47,0.00,,---,0.00,VWS V13.01,2013-02-21 02:03:00,
2013-02-20 18:08:00,35.2,17.0,30.18,NE,45,2.2,2.7,47,0.00,,---,0.00,VWS V13.01,2013-02-21 02:08:00,
2013-02-20 18:13:00,35.2,17.5,30.18,NE,45,2.7,3.1,48,0.00,,---,0.00,VWS V13.01,2013-02-21 02:13:00,
2013-02-20 18:18:00,35.1,17.8,30.18,ENE,68,4.0,4.5,49,0.00,,---,0.00,VWS V13.01,2013-02-21 02:18:00,
2013-02-20 18:23:00,35.1,18.3,30.18,NE,45,0.0,2.7,50,0.00,,---,0.00,VWS V13.01,2013-02-21 02:23:00,
2013-02-20 18:28:00,34.9,19.1,30.18,NE,45,4.0,4.9,52,0.00,,---,0.00,VWS V13.01,2013-02-21 02:28:00,
2013-02-20 18:33:00,34.9,19.1,30.18,NE,45,0.0,2.7,52,0.00,,---,0.00,VWS V13.01,2013-02-21 02:33:00,
2013-02-20 18:38:00,34.7,18.9,30.18,NE,45,2.2,2.7,52,0.00,,---,0.00,VWS V13.01,2013-02-21 02:38:00,
2013-02-20 18:43:00,34.5,18.7,30.18,NE,45,0.0,2.2,52,0.00,,---,0.00,VWS V13.01,2013-02-21 02:43:00,
2013-02-20 18:48:00,34.5,18.7,30.18,NE,45,4.0,4.9,52,0.00,,---,0.00,VWS V13.01,2013-02-21 02:48:00,
2013-02-20 18:53:00,34.3,19.0,30.18,ENE,68,4.0,4.9,53,0.00,,---,0.00,VWS V13.01,2013-02-21 02:53:00,
2013-02-20 18:58:00,34.2,19.3,30.18,NE,45,4.5,4.5,54,0.00,,---,0.00,VWS V13.01,2013-02-21 02:58:00,
2013-02-20 19:03:00,34.0,19.5,30.18,NE,45,4.9,4.9,55,0.00,,---,0.00,VWS V13.01,2013-02-21 03:03:00,
2013-02-20 19:08:00,34.0,20.0,30.18,NE,45,2.7,2.7,56,0.00,,---,0.00,VWS V13.01,2013-02-21 03:08:00,
2013-02-20 19:13:00,33.6,20.4,30.18,NE,45,2.2,2.2,58,0.00,,---,0.00,VWS V13.01,2013-02-21 03:13:00,
2013-02-20 19:18:00,33.6,20.8,30.18,NE,45,0.0,2.7,59,0.00,,---,0.00,VWS V13.01,2013-02-21 03:18:00,
2013-02-20 19:23:00,33.3,20.9,30.18,NE,45,0.0,0.0,60,0.00,,---,0.00,VWS V13.01,2013-02-21 03:23:00,
2013-02-20 19:28:00,33.3,20.9,30.18,NE,45,0.0,0.0,60,0.00,,---,0.00,VWS V13.01,2013-02-21 03:28:00,
2013-02-20 19:33:00,33.1,21.5,30.18,NE,45,0.0,0.0,62,0.00,,---,0.00,VWS V13.01,2013-02-21 03:33:00,
2013-02-20 19:38:00,32.9,21.3,30.21,NE,45,0.0,0.0,62,0.00,,---,0.00,VWS V13.01,2013-02-21 03:38:00,
2013-02-20 19:43:00,32.7,21.5,30.21,NE,45,0.0,0.0,63,0.00,,---,0.00,VWS V13.01,2013-02-21 03:43:00,
2013-02-20 19:48:00,32.5,21.7,30.21,NE,45,0.0,0.0,64,0.00,,---,0.00,VWS V13.01,2013-02-21 03:48:00,
2013-02-20 19:53:00,32.4,21.9,30.21,NE,45,0.0,0.0,65,0.00,,---,0.00,VWS V13.01,2013-02-21 03:53:00,
2013-02-20 19:58:00,32.4,21.9,30.21,NE,45,0.0,0.0,65,0.00,,---,0.00,VWS V13.01,2013-02-21 03:58:00,
2013-02-20 20:03:00,32.2,21.8,30.21,NE,45,0.0,0.0,65,0.00,,---,0.00,VWS V13.01,2013-02-21 04:03:00,
2013-02-20 20:08:00,32.2,22.1,30.21,NE,45,0.0,0.0,66,0.00,,---,0.00,VWS V13.01,2013-02-21 04:08:00,
2013-02-20 20:13:00,32.0,21.9,30.21,NE,45,0.0,0.0,66,0.00,,---,0.00,VWS V13.01,2013-02-21 04:13:00,
2013-02-20 20:18:00,31.8,21.8,30.21,NE,45,0.0,0.0,66,0.00,,---,0.00,VWS V13.01,2013-02-21 04:18:00,
2013-02-20 20:23:00,31.8,22.1,30.21,East,90,0.0,0.0,67,0.00,,---,0.00,VWS V13.01,2013-02-21 04:23:00,
2013-02-20 20:28:00,31.8,22.8,30.21,East,90,0.0,0.0,69,0.00,,---,0.00,VWS V13.01,2013-02-21 04:28:00,
2013-02-20 20:33:00,31.6,22.6,30.21,East,90,0.0,0.0,69,0.00,,---,0.00,VWS V13.01,2013-02-21 04:33:00,
2013-02-20 20:38:00,31.6,23.0,30.21,SE,135,0.0,0.0,70,0.00,,---,0.00,VWS V13.01,2013-02-21 04:38:00,
2013-02-20 20:43:00,31.5,22.8,30.21,SE,135,0.0,0.0,70,0.00,,---,0.00,VWS V13.01,2013-02-21 04:43:00,
2013-02-20 20:48:00,31.5,23.2,30.21,SE,135,0.0,0.0,71,0.00,,---,0.00,VWS V13.01,2013-02-21 04:48:00,
2013-02-20 20:53:00,31.3,23.0,30.21,SE,135,0.0,0.0,71,0.00,,---,0.00,VWS V13.01,2013-02-21 04:53:00,
2013-02-20 20:58:00,31.3,23.0,30.21,SE,135,0.0,0.0,71,0.00,,---,0.00,VWS V13.01,2013-02-21 04:58:00,
2013-02-20 21:00:00,31.3,23.0,30.21,SE,135,0.0,0.0,71,0.00,,---,0.00,VWS V13.01,2013-02-21 05:00:00,
2013-02-20 21:05:00,31.1,22.8,30.21,SE,135,0.0,0.0,71,0.00,,---,0.00,VWS V13.01,2013-02-21 05:05:00,
2013-02-20 21:10:00,30.9,23.0,30.21,SE,135,0.0,0.0,72,0.00,,---,0.00,VWS V13.01,2013-02-21 05:10:00,
2013-02-20 21:15:00,30.7,22.8,30.21,SE,135,0.0,0.0,72,0.00,,---,0.00,VWS V13.01,2013-02-21 05:15:00,
2013-02-20 21:20:00,30.2,22.6,30.21,SE,135,0.0,0.0,73,0.00,,---,0.00,VWS V13.01,2013-02-21 05:20:00,
2013-02-20 21:25:00,30.2,22.6,30.21,SE,135,0.0,0.0,73,0.00,,---,0.00,VWS V13.01,2013-02-21 05:25:00,
2013-02-20 21:30:00,30.2,22.6,30.21,SE,135,0.0,0.0,73,0.00,,---,0.00,VWS V13.01,2013-02-21 05:30:00,
2013-02-20 21:35:00,30.2,22.6,30.21,SE,135,0.0,0.0,73,0.00,,---,0.00,VWS V13.01,2013-02-21 05:35:00,
2013-02-20 21:40:00,29.3,22.7,30.21,SE,135,0.0,0.0,76,0.00,,---,0.00,VWS V13.01,2013-02-21 05:40:00,
2013-02-20 21:45:00,28.9,22.3,30.21,SE,135,0.0,0.0,76,0.00,,---,0.00,VWS V13.01,2013-02-21 05:45:00,
2013-02-20 21:50:00,28.9,22.6,30.21,SE,135,0.0,0.0,77,0.00,,---,0.00,VWS V13.01,2013-02-21 05:50:00,
2013-02-20 21:56:00,28.4,22.4,30.24,SE,135,0.0,0.0,78,0.00,,---,0.00,VWS V13.01,2013-02-21 05:56:00,
2013-02-20 22:01:00,27.9,21.9,30.24,SE,135,0.0,0.0,78,0.00,,---,0.00,VWS V13.01,2013-02-21 06:01:00,
2013-02-20 22:06:00,27.3,21.7,30.21,SE,135,0.0,0.0,79,0.00,,---,0.00,VWS V13.01,2013-02-21 06:06:00,
2013-02-20 22:11:00,27.0,21.6,30.21,SE,135,0.0,0.0,80,0.00,,---,0.00,VWS V13.01,2013-02-21 06:11:00,
2013-02-20 22:16:00,26.6,21.9,30.21,SE,135,0.0,0.0,82,0.00,,---,0.00,VWS V13.01,2013-02-21 06:16:00,
2013-02-20 22:21:00,25.9,21.4,30.24,SE,135,0.0,0.0,83,0.00,,---,0.00,VWS V13.01,2013-02-21 06:21:00,
2013-02-20 22:26:00,26.1,21.9,30.24,SE,135,0.0,0.0,84,0.00,,---,0.00,VWS V13.01,2013-02-21 06:26:00,
2013-02-20 22:31:00,25.7,22.1,30.24,SE,135,0.0,0.0,86,0.00,,---,0.00,VWS V13.01,2013-02-21 06:31:00,
2013-02-20 22:36:00,25.9,22.5,30.24,SE,135,0.0,0.0,87,0.00,,---,0.00,VWS V13.01,2013-02-21 06:36:00,
2013-02-20 22:41:00,25.5,22.5,30.24,SE,135,0.0,0.0,88,0.00,,---,0.00,VWS V13.01,2013-02-21 06:41:00,
2013-02-20 22:46:00,26.1,23.3,30.24,SE,135,0.0,0.0,89,0.00,,---,0.00,VWS V13.01,2013-02-21 06:46:00,
2013-02-20 22:51:00,25.3,22.8,30.24,SE,135,0.0,0.0,90,0.00,,---,0.00,VWS V13.01,2013-02-21 06:51:00,
2013-02-20 22:56:00,25.2,22.4,30.24,SE,135,0.0,0.0,89,0.00,,---,0.00,VWS V13.01,2013-02-21 06:56:00,
2013-02-20 23:01:00,25.5,23.0,30.24,SE,135,0.0,0.0,90,0.00,,---,0.00,VWS V13.01,2013-02-21 07:01:00,
2013-02-20 23:06:00,25.7,23.4,30.24,SE,135,0.0,0.0,91,0.00,,---,0.00,VWS V13.01,2013-02-21 07:06:00,
2013-02-20 23:11:00,25.7,23.4,30.24,SE,135,0.0,0.0,91,0.00,,---,0.00,VWS V13.01,2013-02-21 07:11:00,
2013-02-20 23:16:00,25.5,23.3,30.24,SE,135,0.0,0.0,91,0.00,,---,0.00,VWS V13.01,2013-02-21 07:16:00,
2013-02-20 23:21:00,25.3,23.1,30.24,SE,135,0.0,0.0,91,0.00,,---,0.00,VWS V13.01,2013-02-21 07:21:00,
2013-02-20 23:26:00,25.3,23.1,30.24,SE,135,0.0,0.0,91,0.00,,---,0.00,VWS V13.01,2013-02-21 07:26:00,
2013-02-20 23:31:00,25.2,22.9,30.24,SE,135,0.0,0.0,91,0.00,,---,0.00,VWS V13.01,2013-02-21 07:31:00,
2013-02-20 23:36:00,24.8,22.8,30.24,SE,135,0.0,0.0,92,0.00,,---,0.00,VWS V13.01,2013-02-21 07:36:00,
2013-02-20 23:41:00,24.4,22.5,30.24,SE,135,0.0,0.0,92,0.00,,---,0.00,VWS V13.01,2013-02-21 07:41:00,
2013-02-20 23:46:00,24.3,22.3,30.24,SE,135,0.0,0.0,92,0.00,,---,0.00,VWS V13.01,2013-02-21 07:46:00,
2013-02-20 23:51:00,23.5,21.3,30.24,SE,135,0.0,0.0,91,0.00,,---,0.00,VWS V13.01,2013-02-21 07:51:00,
2013-02-20 23:56:00,23.2,21.0,30.24,SE,135,0.0,0.0,91,0.00,,---,0.00,VWS V13.01,2013-02-21 07:56:00,